Time,TemperatureF,DewpointF,PressureIn,WindDirection,WindDirectionDegrees,WindSpeedMPH,WindSpeedGustMPH,Humidity,HourlyPrecipIn,Conditions,Clouds,dailyrainin,SoftwareType,DateUTC
2013-10-09 00:12:00,60.4,56.0,30.14,NNW,345,0.0,1.0,84,0.00,,,0.00,weatherlink.com 1.10,2013-10-09 04:12:00,
2013-10-09 00:27:00,60.0,55.0,30.14,NE,47,0.0,1.0,84,0.00,,,0.00,weatherlink.com 1.10,2013-10-09 04:27:00,
2013-10-09 00:42:00,59.9,55.0,30.14,WSW,257,0.0,1.0,85,0.00,,,0.00,weatherlink.com 1.10,2013-10-09 04:42:00,
2013-10-09 00:57:00,59.9,55.0,30.14,West,271,0.0,1.0,83,0.00,,,0.00,weatherlink.com 1.10,2013-10-09 04:57:00,
2013-10-09 01:12:00,59.8,55.0,30.14,NNW,335,0.0,0.0,83,0.00,,,0.00,weatherlink.com 1.10,2013-10-09 05:12:00,
2013-10-09 01:27:00,59.3,55.0,30.14,East,88,0.0,0.0,84,0.00,,,0.00,weatherlink.com 1.10,2013-10-09 05:27:00,
2013-10-09 01:42:00,58.7,55.0,30.14,East,87,0.0,0.0,86,0.00,,,0.00,weatherlink.com 1.10,2013-10-09 05:42:00,
2013-10-09 01:57:00,58.1,54.0,30.14,East,87,0.0,0.0,86,0.00,,,0.00,weatherlink.com 1.10,2013-10-09 05:57:00,
2013-10-09 02:12:00,57.5,54.0,30.14,East,87,0.0,0.0,87,0.00,,,0.00,weatherlink.com 1.10,2013-10-09 06:12:00,
2013-10-09 02:27:00,57.2,54.0,30.14,East,88,0.0,0.0,88,0.00,,,0.00,weatherlink.com 1.10,2013-10-09 06:27:00,
2013-10-09 02:42:00,56.9,53.0,30.14,East,88,0.0,0.0,88,0.00,,,0.00,weatherlink.com 1.10,2013-10-09 06:42:00,
2013-10-09 02:57:00,56.6,53.0,30.15,East,88,0.0,0.0,88,0.00,,,0.00,weatherlink.com 1.10,2013-10-09 06:57:00,
2013-10-09 03:12:00,56.2,53.0,30.15,East,88,0.0,0.0,88,0.00,,,0.00,weatherlink.com 1.10,2013-10-09 07:12:00,
2013-10-09 03:27:00,55.9,53.0,30.15,East,88,0.0,0.0,89,0.00,,,0.00,weatherlink.com 1.10,2013-10-09 07:27:00,
2013-10-09 03:42:00,55.5,53.0,30.15,East,87,0.0,0.0,90,0.00,,,0.00,weatherlink.com 1.10,2013-10-09 07:42:00,
2013-10-09 03:57:00,55.5,53.0,30.15,East,88,0.0,0.0,90,0.00,,,0.00,weatherlink.com 1.10,2013-10-09 07:57:00,
2013-10-09 04:12:00,56.3,52.0,30.15,East,88,0.0,0.0,86,0.00,,,0.00,weatherlink.com 1.10,2013-10-09 08:12:00,
2013-10-09 04:27:00,56.9,53.0,30.16,East,88,0.0,0.0,87,0.00,,,0.00,weatherlink.com 1.10,2013-10-09 08:27:00,
2013-10-09 04:42:00,57.0,53.0,30.16,East,84,0.0,0.0,87,0.00,,,0.00,weatherlink.com 1.10,2013-10-09 08:42:00,
2013-10-09 04:57:00,56.7,52.0,30.16,East,84,0.0,0.0,83,0.00,,,0.00,weatherlink.com 1.10,2013-10-09 08:57:00,
2013-10-09 05:12:00,55.8,52.0,30.16,East,84,0.0,0.0,87,0.00,,,0.00,weatherlink.com 1.10,2013-10-09 09:12:00,
2013-10-09 05:27:00,54.9,52.0,30.16,East,84,0.0,0.0,88,0.00,,,0.00,weatherlink.com 1.10,2013-10-09 09:27:00,
2013-10-09 05:42:00,54.3,52.0,30.17,East,84,0.0,1.0,90,0.00,,,0.00,weatherlink.com 1.10,2013-10-09 09:42:00,
2013-10-09 05:57:00,54.3,51.0,30.17,ENE,78,0.0,1.0,88,0.00,,,0.00,weatherlink.com 1.10,2013-10-09 09:57:00,
2013-10-09 06:12:00,54.3,51.0,30.17,ENE,78,0.0,0.0,88,0.00,,,0.00,weatherlink.com 1.10,2013-10-09 10:12:00,
2013-10-09 06:28:00,54.3,50.0,30.17,West,270,0.0,1.0,85,0.00,,,0.00,weatherlink.com 1.10,2013-10-09 10:28:00,
2013-10-09 06:43:00,54.1,50.0,30.17,West,270,0.0,0.0,86,0.00,,,0.00,weatherlink.com 1.10,2013-10-09 10:43:00,
2013-10-09 06:58:00,53.7,49.0,30.17,NE,47,0.0,0.0,83,0.00,,,0.00,weatherlink.com 1.10,2013-10-09 10:58:00,
2013-10-09 07:13:00,53.5,49.0,30.18,NE,47,0.0,0.0,83,0.00,,,0.00,weatherlink.com 1.10,2013-10-09 11:13:00,
2013-10-09 07:28:00,53.3,49.0,30.18,West,274,0.0,1.0,84,0.00,,,0.00,weatherlink.com 1.10,2013-10-09 11:28:00,
2013-10-09 07:43:00,53.1,48.0,30.18,NNE,27,0.0,0.0,82,0.00,,,0.00,weatherlink.com 1.10,2013-10-09 11:43:00,
2013-10-09 07:58:00,53.1,48.0,30.18,East,97,0.0,0.0,83,0.00,,,0.00,weatherlink.com 1.10,2013-10-09 11:58:00,
2013-10-09 08:13:00,53.6,47.0,30.18,NNE,19,0.0,1.0,79,0.00,,,0.00,weatherlink.com 1.10,2013-10-09 12:13:00,
2013-10-09 08:28:00,53.9,48.0,30.19,East,91,1.0,1.0,79,0.00,,,0.00,weatherlink.com 1.10,2013-10-09 12:28:00,
2013-10-09 08:43:00,54.3,48.0,30.19,East,101,0.0,1.0,78,0.00,,,0.00,weatherlink.com 1.10,2013-10-09 12:43:00,
2013-10-09 08:58:00,55.0,49.0,30.20,East,79,0.0,3.0,79,0.00,,,0.00,weatherlink.com 1.10,2013-10-09 12:58:00,
2013-10-09 09:13:00,55.3,48.0,30.20,East,91,0.0,4.0,77,0.00,,,0.00,weatherlink.com 1.10,2013-10-09 13:13:00,
2013-10-09 09:28:00,56.4,50.0,30.20,ENE,57,0.0,2.0,78,0.00,,,0.00,weatherlink.com 1.10,2013-10-09 13:28:00,
2013-10-09 09:43:00,56.8,50.0,30.21,NNW,342,0.0,2.0,79,0.00,,,0.00,weatherlink.com 1.10,2013-10-09 13:43:00,
2013-10-09 09:58:00,57.2,51.0,30.21,ENE,66,0.0,1.0,79,0.00,,,0.00,weatherlink.com 1.10,2013-10-09 13:58:00,
2013-10-09 10:13:00,58.2,51.0,30.21,ENE,73,0.0,4.0,77,0.00,,,0.00,weatherlink.com 1.10,2013-10-09 14:13:00,
2013-10-09 10:28:00,59.1,52.0,30.21,NE,47,0.0,2.0,76,0.00,,,0.00,weatherlink.com 1.10,2013-10-09 14:28:00,
2013-10-09 10:43:00,60.3,53.0,30.21,NE,45,0.0,2.0,76,0.00,,,0.00,weatherlink.com 1.10,2013-10-09 14:43:00,
2013-10-09 10:58:00,61.0,53.0,30.21,South,191,0.0,3.0,74,0.00,,,0.00,weatherlink.com 1.10,2013-10-09 14:58:00,
2013-10-09 11:13:00,61.7,52.0,30.21,ENE,63,0.0,4.0,71,0.00,,,0.00,weatherlink.com 1.10,2013-10-09 15:13:00,
2013-10-09 11:28:00,62.5,53.0,30.21,ENE,65,0.0,1.0,71,0.00,,,0.00,weatherlink.com 1.10,2013-10-09 15:28:00,
2013-10-09 11:43:00,63.5,51.0,30.21,NE,34,0.0,2.0,65,0.00,,,0.00,weatherlink.com 1.10,2013-10-09 15:43:00,
2013-10-09 11:58:00,64.6,52.0,30.20,NE,39,0.0,2.0,63,0.00,,,0.00,weatherlink.com 1.10,2013-10-09 15:58:00,
2013-10-09 12:13:00,66.0,52.0,30.20,SW,228,1.0,1.0,61,0.00,,,0.00,weatherlink.com 1.10,2013-10-09 16:13:00,
2013-10-09 12:28:00,68.4,51.0,30.20,NNE,32,0.0,2.0,54,0.00,,,0.00,weatherlink.com 1.10,2013-10-09 16:28:00,
2013-10-09 12:43:00,68.7,51.0,30.19,East,97,0.0,3.0,54,0.00,,,0.00,weatherlink.com 1.10,2013-10-09 16:43:00,
2013-10-09 12:58:00,69.9,52.0,30.19,NNE,28,0.0,2.0,54,0.00,,,0.00,weatherlink.com 1.10,2013-10-09 16:58:00,
2013-10-09 13:13:00,70.8,52.0,30.18,NNW,335,1.0,2.0,51,0.00,,,0.00,weatherlink.com 1.10,2013-10-09 17:13:00,
2013-10-09 13:28:00,71.8,52.0,30.17,NE,47,0.0,1.0,50,0.00,,,0.00,weatherlink.com 1.10,2013-10-09 17:28:00,
2013-10-09 13:44:00,72.4,54.0,30.17,ENE,60,0.0,1.0,52,0.00,,,0.00,weatherlink.com 1.10,2013-10-09 17:44:00,
2013-10-09 13:59:00,73.2,51.0,30.16,North,1,0.0,1.0,46,0.00,,,0.00,weatherlink.com 1.10,2013-10-09 17:59:00,
2013-10-09 14:14:00,73.5,54.0,30.16,East,80,0.0,2.0,51,0.00,,,0.00,weatherlink.com 1.10,2013-10-09 18:14:00,
2013-10-09 14:29:00,74.6,54.0,30.15,SW,226,1.0,1.0,49,0.00,,,0.00,weatherlink.com 1.10,2013-10-09 18:29:00,
2013-10-09 14:44:00,75.3,55.0,30.14,ENE,58,0.0,1.0,50,0.00,,,0.00,weatherlink.com 1.10,2013-10-09 18:44:00,
2013-10-09 14:59:00,75.1,55.0,30.14,NE,41,0.0,1.0,49,0.00,,,0.00,weatherlink.com 1.10,2013-10-09 18:59:00,
2013-10-09 15:14:00,75.2,55.0,30.14,ENE,67,0.0,1.0,50,0.00,,,0.00,weatherlink.com 1.10,2013-10-09 19:14:00,
2013-10-09 15:29:00,75.5,55.0,30.13,NE,46,3.0,3.0,49,0.00,,,0.00,weatherlink.com 1.10,2013-10-09 19:29:00,
2013-10-09 15:44:00,75.7,55.0,30.13,ENE,67,0.0,1.0,49,0.00,,,0.00,weatherlink.com 1.10,2013-10-09 19:44:00,
2013-10-09 15:59:00,75.9,57.0,30.13,ENE,64,0.0,1.0,52,0.00,,,0.00,weatherlink.com 1.10,2013-10-09 19:59:00,
2013-10-09 16:14:00,75.7,54.0,30.12,South,191,0.0,4.0,47,0.00,,,0.00,weatherlink.com 1.10,2013-10-09 20:14:00,
2013-10-09 16:29:00,75.3,57.0,30.12,ENE,67,0.0,1.0,53,0.00,,,0.00,weatherlink.com 1.10,2013-10-09 20:29:00,
2013-10-09 16:44:00,75.3,56.0,30.12,NE,44,0.0,1.0,52,0.00,,,0.00,weatherlink.com 1.10,2013-10-09 20:44:00,
2013-10-09 16:59:00,76.9,56.0,30.12,South,174,0.0,1.0,48,0.00,,,0.00,weatherlink.com 1.10,2013-10-09 20:59:00,
2013-10-09 17:14:00,77.6,58.0,30.12,SSW,200,0.0,0.0,51,0.00,,,0.00,weatherlink.com 1.10,2013-10-09 21:14:00,
2013-10-09 17:29:00,76.4,58.0,30.12,NNW,333,0.0,1.0,53,0.00,,,0.00,weatherlink.com 1.10,2013-10-09 21:29:00,
2013-10-09 17:44:00,75.7,57.0,30.12,NNW,333,0.0,1.0,53,0.00,,,0.00,weatherlink.com 1.10,2013-10-09 21:44:00,
2013-10-09 17:59:00,75.4,58.0,30.12,NNW,333,0.0,0.0,56,0.00,,,0.00,weatherlink.com 1.10,2013-10-09 21:59:00,
2013-10-09 18:14:00,73.3,58.0,30.11,NNW,333,0.0,0.0,60,0.00,,,0.00,weatherlink.com 1.10,2013-10-09 22:14:00,
2013-10-09 18:29:00,71.4,58.0,30.11,NNW,333,0.0,0.0,62,0.00,,,0.00,weatherlink.com 1.10,2013-10-09 22:29:00,
2013-10-09 18:44:00,70.0,58.0,30.11,NNW,333,0.0,0.0,67,0.00,,,0.00,weatherlink.com 1.10,2013-10-09 22:44:00,
2013-10-09 18:59:00,68.1,58.0,30.11,NNW,333,0.0,0.0,71,0.00,,,0.00,weatherlink.com 1.10,2013-10-09 22:59:00,
2013-10-09 19:14:00,66.6,58.0,30.11,NNW,333,0.0,0.0,75,0.00,,,0.00,weatherlink.com 1.10,2013-10-09 23:14:00,
2013-10-09 19:29:00,65.3,58.0,30.12,NNW,333,0.0,0.0,78,0.00,,,0.00,weatherlink.com 1.10,2013-10-09 23:29:00,
2013-10-09 19:44:00,64.3,58.0,30.12,NNW,333,0.0,0.0,80,0.00,,,0.00,weatherlink.com 1.10,2013-10-09 23:44:00,
2013-10-09 19:59:00,63.3,58.0,30.12,NNW,333,0.0,0.0,82,0.00,,,0.00,weatherlink.com 1.10,2013-10-09 23:59:00,
2013-10-09 20:14:00,62.5,58.0,30.12,NNW,333,0.0,0.0,84,0.00,,,0.00,weatherlink.com 1.10,2013-10-10 00:14:00,
2013-10-09 20:29:00,61.8,58.0,30.12,NNW,333,0.0,0.0,86,0.00,,,0.00,weatherlink.com 1.10,2013-10-10 00:29:00,
2013-10-09 20:44:00,61.3,58.0,30.12,NNW,333,0.0,0.0,88,0.00,,,0.00,weatherlink.com 1.10,2013-10-10 00:44:00,
2013-10-09 20:59:00,60.8,58.0,30.12,NNW,333,0.0,0.0,90,0.00,,,0.00,weatherlink.com 1.10,2013-10-10 00:59:00,
2013-10-09 21:14:00,60.3,58.0,30.13,NNW,333,0.0,0.0,91,0.00,,,0.00,weatherlink.com 1.10,2013-10-10 01:14:00,
2013-10-09 21:29:00,59.8,57.0,30.13,NNW,333,0.0,0.0,91,0.00,,,0.00,weatherlink.com 1.10,2013-10-10 01:29:00,
2013-10-09 21:44:00,59.5,57.0,30.13,NNW,333,0.0,0.0,91,0.00,,,0.00,weatherlink.com 1.10,2013-10-10 01:44:00,
2013-10-09 21:59:00,59.0,56.0,30.13,NNW,333,0.0,0.0,91,0.00,,,0.00,weatherlink.com 1.10,2013-10-10 01:59:00,
2013-10-09 22:14:00,58.6,56.0,30.13,NNW,333,0.0,0.0,92,0.00,,,0.00,weatherlink.com 1.10,2013-10-10 02:14:00,
2013-10-09 22:29:00,58.2,56.0,30.13,NNW,333,0.0,0.0,93,0.00,,,0.00,weatherlink.com 1.10,2013-10-10 02:29:00,
2013-10-09 22:44:00,57.9,56.0,30.14,NNW,333,0.0,0.0,93,0.00,,,0.00,weatherlink.com 1.10,2013-10-10 02:44:00,
2013-10-09 22:59:00,57.4,55.0,30.14,NNW,333,0.0,0.0,93,0.00,,,0.00,weatherlink.com 1.10,2013-10-10 02:59:00,
2013-10-09 23:14:00,57.3,56.0,30.14,NNW,333,0.0,0.0,94,0.00,,,0.00,weatherlink.com 1.10,2013-10-10 03:14:00,
2013-10-09 23:29:00,57.0,55.0,30.14,NNW,333,0.0,0.0,94,0.00,,,0.00,weatherlink.com 1.10,2013-10-10 03:29:00,
2013-10-09 23:44:00,56.7,55.0,30.14,NNW,333,0.0,0.0,94,0.00,,,0.00,weatherlink.com 1.10,2013-10-10 03:44:00,
2013-10-09 23:59:00,56.4,55.0,30.13,NNW,333,0.0,0.0,94,0.00,,,0.00,weatherlink.com 1.10,2013-10-10 03:59:00,